When you browse on this site, cookies collect data to enhance your experience and personalize the content and advertising you see.
Visit our Privacy Policy to learn more. By continuing to use the site, you agree to this use of cookies and data.
  • In Portugal
  • List of Countries
  • For 7 days
  • Water Temperature
  • Satellite Maps
  • Weather Map
  • Weather Widgets
  • user-avatar
    Login

    Hourly Weather Krasnoe Lyado

    Today, 16 February, Saturday

    Time Temperature Precipitation Wind Pressure Humidity
    00:00 -1°C° 0 mm 4 mps 740 mmHg 95%
    01:00 -1°C° 0 mm 4 mps 740 mmHg 96%
    02:00 -1°C° 0 mm 4 mps 740 mmHg 97%
    03:00 -1°C° 0 mm 4 mps 740 mmHg 97%
    04:00 0°C° 0 mm 3 mps 740 mmHg 97%
    05:00 0°C° 0 mm 3 mps 740 mmHg 97%
    06:00 0°C° 0.1 mm 3 mps 740 mmHg 97%
    07:00 0°C° 0.1 mm 3 mps 740 mmHg 97%
    08:00 0°C° 0.1 mm 3 mps 740 mmHg 97%
    09:00 0°C° 0 mm 3 mps 740 mmHg 96%
    10:00 0°C° 0 mm 3 mps 739 mmHg 95%
    11:00 0°C° 0 mm 3 mps 739 mmHg 94%
    12:00 +1°C° 0 mm 3 mps 739 mmHg 92%
    13:00 0°C° 0 mm 4 mps 738 mmHg 90%
    14:00 +1°C° 0 mm 4 mps 738 mmHg 88%
    15:00 0°C° 0 mm 4 mps 737 mmHg 87%
    16:00 0°C° 0 mm 4 mps 737 mmHg 86%
    17:00 0°C° 0 mm 4 mps 736 mmHg 85%
    18:00 -1°C° 0 mm 4 mps 736 mmHg 84%
    19:00 -1°C° 0 mm 4 mps 735 mmHg 83%
    20:00 -1°C° 0 mm 4 mps 735 mmHg 83%
    21:00 -1°C° 0 mm 4 mps 734 mmHg 84%
    22:00 -1°C° 0 mm 4 mps 734 mmHg 84%
    23:00 -1°C° 0 mm 4 mps 734 mmHg 85%

    Tomorrow, 17 February, Sunday

    Time Temperature Precipitation Wind Pressure Humidity
    00:00 -1°C° 0 mm 4 mps 733 mmHg 86%
    01:00 -1°C° 0 mm 4 mps 733 mmHg 87%
    02:00 -1°C° 0 mm 4 mps 733 mmHg 87%
    03:00 -1°C° 0 mm 5 mps 733 mmHg 88%
    04:00 -1°C° 0 mm 5 mps 732 mmHg 89%
    05:00 -1°C° 0 mm 5 mps 732 mmHg 90%
    06:00 -2°C° 0 mm 5 mps 733 mmHg 89%
    07:00 -2°C° 0 mm 5 mps 733 mmHg 88%
    08:00 -2°C° 0 mm 4 mps 733 mmHg 87%
    09:00 -2°C° 0 mm 5 mps 733 mmHg 84%
    10:00 -2°C° 0 mm 5 mps 733 mmHg 80%
    11:00 -2°C° 0 mm 5 mps 733 mmHg 76%
    12:00 -3°C° 0 mm 6 mps 734 mmHg 74%
    13:00 -3°C° 0 mm 6 mps 734 mmHg 72%
    14:00 -2°C° 0 mm 6 mps 734 mmHg 70%
    15:00 -3°C° 0 mm 6 mps 734 mmHg 71%
    16:00 -4°C° 0 mm 6 mps 735 mmHg 72%
    17:00 -4°C° 0 mm 5 mps 735 mmHg 73%
    18:00 -5°C° 0 mm 5 mps 736 mmHg 73%
    19:00 -5°C° 0 mm 5 mps 737 mmHg 73%
    20:00 -5°C° 0 mm 5 mps 737 mmHg 73%
    21:00 -6°C° 0 mm 5 mps 738 mmHg 74%
    22:00 -6°C° 0 mm 5 mps 738 mmHg 76%
    23:00 -5°C° 0 mm 4 mps 739 mmHg 77%

    Day after tomorrow, 18 February, Monday

    Time Temperature Precipitation Wind Pressure Humidity
    00:00 -7°C° 0 mm 4 mps 740 mmHg 78%
    01:00 -7°C° 0 mm 4 mps 740 mmHg 79%
    02:00 -7°C° 0 mm 4 mps 741 mmHg 80%
    03:00 -7°C° 0 mm 4 mps 741 mmHg 81%
    04:00 -7°C° 0 mm 3 mps 742 mmHg 81%
    05:00 -7°C° 0 mm 3 mps 742 mmHg 82%
    06:00 -7°C° 0 mm 3 mps 743 mmHg 83%
    07:00 -7°C° 0 mm 3 mps 743 mmHg 84%
    08:00 -8°C° 0 mm 3 mps 744 mmHg 85%
    09:00 -6°C° 0 mm 2 mps 744 mmHg 81%
    10:00 -6°C° 0 mm 2 mps 745 mmHg 78%
    11:00 -5°C° 0 mm 2 mps 745 mmHg 75%
    12:00 -5°C° 0 mm 2 mps 745 mmHg 72%
    13:00 -2°C° 0 mm 1 mps 745 mmHg 68%
    14:00 -2°C° 0 mm 1 mps 745 mmHg 65%
    15:00 -2°C° 0 mm 1 mps 745 mmHg 70%
    16:00 -3°C° 0 mm 1 mps 745 mmHg 74%
    17:00 -3°C° 0 mm 1 mps 745 mmHg 78%
    18:00 -5°C° 0 mm 2 mps 745 mmHg 78%
    19:00 -6°C° 0 mm 2 mps 745 mmHg 77%
    20:00 -6°C° 0 mm 2 mps 745 mmHg 77%
    21:00 -6°C° 0 mm 3 mps 744 mmHg 74%
    22:00 -6°C° 0 mm 3 mps 744 mmHg 72%
    23:00 -7°C° 0 mm 4 mps 743 mmHg 70%

    19 February, Tuesday

    Time Temperature Precipitation Wind Pressure Humidity
    00:00 -5°C° 0 mm 4 mps 743 mmHg 68%
    01:00 -6°C° 0 mm 5 mps 743 mmHg 65%
    02:00 -5°C° 0 mm 5 mps 742 mmHg 63%
    03:00 -5°C° 0 mm 5 mps 742 mmHg 65%
    04:00 -5°C° 0 mm 5 mps 741 mmHg 66%
    05:00 -5°C° 0 mm 5 mps 740 mmHg 68%
    06:00 -5°C° 0 mm 5 mps 740 mmHg 71%
    07:00 -5°C° 0 mm 5 mps 740 mmHg 74%
    08:00 -5°C° 0 mm 5 mps 739 mmHg 77%
    09:00 -4°C° 0 mm 6 mps 739 mmHg 76%
    10:00 -3°C° 0 mm 6 mps 739 mmHg 76%
    11:00 -2°C° 0 mm 6 mps 738 mmHg 76%
    12:00 -1°C° 0 mm 6 mps 738 mmHg 75%
    13:00 -1°C° 0 mm 6 mps 737 mmHg 75%
    14:00 -1°C° 0 mm 6 mps 736 mmHg 74%
    15:00 0°C° 0 mm 5 mps 736 mmHg 76%
    16:00 -1°C° 0 mm 5 mps 735 mmHg 78%
    17:00 -1°C° 0 mm 5 mps 735 mmHg 80%
    18:00 -1°C° 0 mm 5 mps 734 mmHg 82%
    19:00 -2°C° 0 mm 5 mps 734 mmHg 83%
    20:00 -2°C° 0 mm 5 mps 734 mmHg 85%
    21:00 -2°C° 0 mm 5 mps 733 mmHg 86%
    22:00 -2°C° 0 mm 5 mps 733 mmHg 87%
    23:00 -2°C° 0 mm 5 mps 732 mmHg 88%

    20 February, Wednesday

    Time Temperature Precipitation Wind Pressure Humidity
    00:00 -1°C° 0.1 mm 5 mps 731 mmHg 89%
    01:00 -1°C° 0.1 mm 4 mps 731 mmHg 90%
    02:00 -1°C° 0.1 mm 4 mps 730 mmHg 90%
    03:00 -1°C° 1.1 mm 4 mps 729 mmHg 91%
    04:00 -1°C° 1.1 mm 4 mps 729 mmHg 91%
    05:00 -1°C° 1.1 mm 4 mps 728 mmHg 92%
    06:00 -1°C° 0.7 mm 4 mps 728 mmHg 93%
    07:00 -1°C° 0.7 mm 4 mps 727 mmHg 93%
    08:00 -1°C° 0.7 mm 4 mps 727 mmHg 94%
    09:00 -1°C° 0.3 mm 4 mps 727 mmHg 93%
    10:00 -1°C° 0.3 mm 4 mps 727 mmHg 92%
    11:00 -1°C° 0.3 mm 4 mps 727 mmHg 91%
    12:00 0°C° 0.5 mm 4 mps 727 mmHg 90%
    13:00 0°C° 0.5 mm 4 mps 726 mmHg 89%
    14:00 0°C° 0.5 mm 4 mps 726 mmHg 88%
    15:00 0°C° 0.6 mm 5 mps 726 mmHg 87%
    16:00 -1°C° 0.6 mm 5 mps 726 mmHg 86%
    17:00 -2°C° 0.6 mm 6 mps 726 mmHg 84%
    18:00 -2°C° 0.2 mm 6 mps 726 mmHg 84%
    19:00 -2°C° 0.2 mm 5 mps 726 mmHg 84%
    20:00 -2°C° 0.2 mm 5 mps 726 mmHg 84%
    21:00 -2°C° 0.5 mm 5 mps 726 mmHg 86%
    22:00 -4°C° 0.5 mm 5 mps 727 mmHg 87%
    23:00 -4°C° 0.5 mm 5 mps 727 mmHg 89%

    21 February, Thursday

    Time Temperature Precipitation Wind Pressure Humidity
    00:00 -4°C° 0.4 mm 6 mps 727 mmHg 88%
    01:00 -3°C° 0.4 mm 6 mps 728 mmHg 88%
    02:00 -3°C° 0.4 mm 6 mps 729 mmHg 87%
    03:00 -3°C° 0.2 mm 6 mps 729 mmHg 87%
    04:00 -4°C° 0.2 mm 5 mps 730 mmHg 86%
    05:00 -4°C° 0.2 mm 5 mps 730 mmHg 85%
    06:00 -5°C° 0.1 mm 5 mps 731 mmHg 83%
    07:00 -6°C° 0.1 mm 5 mps 731 mmHg 81%
    08:00 -7°C° 0.1 mm 5 mps 732 mmHg 79%
    09:00 -8°C° 0.1 mm 6 mps 732 mmHg 77%
    10:00 -8°C° 0.1 mm 6 mps 733 mmHg 76%
    11:00 -8°C° 0.1 mm 6 mps 733 mmHg 74%
    12:00 -6°C° 0.1 mm 6 mps 734 mmHg 75%
    13:00 -6°C° 0.1 mm 6 mps 734 mmHg 75%
    14:00 -6°C° 0.1 mm 6 mps 735 mmHg 75%
    15:00 -8°C° 0.1 mm 6 mps 736 mmHg 73%
    16:00 -9°C° 0.1 mm 6 mps 737 mmHg 72%
    17:00 -9°C° 0.1 mm 6 mps 737 mmHg 70%
    18:00 -10°C° 0 mm 5 mps 738 mmHg 71%
    19:00 -11°C° 0 mm 5 mps 739 mmHg 72%
    20:00 -11°C° 0 mm 4 mps 740 mmHg 73%
    21:00 -11°C° 0 mm 4 mps 740 mmHg 74%
    22:00 -11°C° 0 mm 4 mps 741 mmHg 75%
    23:00 -11°C° 0 mm 4 mps 742 mmHg 76%
    Show more